Weather History for Linden, NJ

Change the Weather History Date:

Tuesday, March 11, 2014

  Actual Average (KEWR) Record (KEWR)
Temperature  
Mean Temperature 54 °F 40 °F  
Max Temperature 66 °F 49 °F 71 °F (1977)
Min Temperature 42 °F 32 °F 14 °F (1960)
Degree Days  
Heating Degree Days 11 25  
Month to date heating degree days 286  
Since 1 July heating degree days 3921  
Cooling Degree Days 0 0  
Month to date cooling degree days 0  
Year to date cooling degree days 0  
Growing Degree Days 4 (Base 50)    
Moisture  
Dew Point 35 °F    
Average Humidity 50    
Maximum Humidity 73    
Minimum Humidity 31    
Precipitation  
Precipitation 0.00 in 0.12 in 1.53 in (1952)
Month to date precipitation 1.37  
Year to date precipitation 7.79  
Snow  
Snow 0.00 in 0.20 in 0.60 in (1981)
Month to date snowfall 2.3  
Since 1 July snowfall 25.3  
Snow Depth -    
Sea Level Pressure  
Sea Level Pressure 29.65 in    
Wind  
Wind Speed 4 mph (West)    
Max Wind Speed 13 mph    
Max Gust Speed 20 mph    
Visibility 10 miles    
Events      
T = Trace of Precipitation, MM = Missing Value Source: NWS Daily Summary

Daily Weather History Graph

Daily Weather History Graph

Search for Another Location

Airport:

Trip Planner

Search our weather history database for the weather conditions in past years. The results will help you decide how hot, cold, wet, or windy it might be!

Date:

Astronomy

Mar. 11, 2014 Rise Set
Actual Time 7:15 AM EDT 6:59 PM EDT
Civil Twilight 6:47 AM EDT 7:26 PM EDT
Nautical Twilight 6:16 AM EDT 7:58 PM EDT
Astronomical Twilight 5:44 AM EDT 8:30 PM EDT
Moon 2:32 PM EDT (3/11) 4:08 AM EDT (3/11)
Length of Visible Light 12h 38m
Length of Day
11h 44m
Waxing Gibbous, 78% of the Moon is Illuminated
Mar 11
Waxing Gibbous
Mar 16
Full
Mar 23
Last Quarter
Mar 30
New
Apr 7
First Quarter

Hourly Weather History & Observations

Time (EDT) Temp. Windchill Dew Point Humidity Pressure Visibility Wind Dir Wind Speed Gust Speed Precip Events Conditions
12:15 AM 42.8 °F - 34.7 °F 73% 29.63 in 10.0 mi Calm Calm - N/A   Scattered Clouds
12:35 AM 44.2 °F - 33.4 °F 66% 29.63 in 10.0 mi Calm Calm - N/A   Mostly Cloudy
12:55 AM 43.9 °F - 32.2 °F 63% 29.62 in 10.0 mi Calm Calm - N/A   Scattered Clouds
1:15 AM 44.4 °F - 32.0 °F 62% 29.61 in 10.0 mi Calm Calm - N/A   Clear
1:35 AM 43.7 °F - 32.0 °F 63% 29.60 in 10.0 mi Calm Calm - N/A   Clear
1:55 AM 43.9 °F - 31.8 °F 63% 29.60 in 10.0 mi Calm Calm - N/A   Clear
2:15 AM 44.6 °F - 31.6 °F 60% 29.60 in 10.0 mi Calm Calm - N/A   Clear
2:35 AM 44.6 °F 43.1 °F 31.8 °F 61% 29.59 in 10.0 mi WSW 3.5 mph - N/A   Clear
2:55 AM 44.4 °F 42.0 °F 31.8 °F 61% 29.60 in 10.0 mi West 4.6 mph - N/A   Clear
3:15 AM 44.6 °F 43.1 °F 31.8 °F 61% 29.60 in 10.0 mi West 3.5 mph - N/A   Clear
3:35 AM 43.5 °F - 31.8 °F 63% 29.60 in 10.0 mi Calm Calm - N/A   Clear
3:55 AM 44.6 °F 43.1 °F 31.8 °F 61% 29.60 in 10.0 mi West 3.5 mph - N/A   Clear
4:15 AM 43.9 °F 42.3 °F 31.6 °F 62% 29.60 in 10.0 mi West 3.5 mph - N/A   Clear
4:35 AM 43.9 °F 42.3 °F 31.6 °F 62% 29.59 in 10.0 mi West 3.5 mph - N/A   Clear
4:55 AM 44.1 °F 41.5 °F 31.5 °F 61% 29.60 in 10.0 mi West 4.6 mph - N/A   Clear
5:15 AM 44.6 °F 40.7 °F 31.1 °F 59% 29.60 in 10.0 mi West 6.9 mph - N/A   Clear
5:35 AM 44.8 °F 41.0 °F 31.1 °F 59% 29.61 in 10.0 mi West 6.9 mph - N/A   Clear
5:55 AM 45.5 °F 42.5 °F 30.9 °F 57% 29.61 in 10.0 mi West 5.8 mph - N/A   Clear
6:15 AM 45.1 °F 42.0 °F 31.1 °F 58% 29.62 in 10.0 mi West 5.8 mph - N/A   Clear
6:35 AM 45.0 °F 41.8 °F 31.5 °F 59% 29.64 in 10.0 mi WNW 5.8 mph - N/A   Clear
6:55 AM 44.2 °F 40.3 °F 31.6 °F 61% 29.65 in 10.0 mi West 6.9 mph - N/A   Clear
7:15 AM 46.4 °F 43.5 °F 31.6 °F 56% 29.65 in 10.0 mi West 5.8 mph - N/A   Clear
7:35 AM 45.7 °F 42.7 °F 32.0 °F 59% 29.66 in 10.0 mi West 5.8 mph - N/A   Clear
7:55 AM 46.6 °F - 32.0 °F 57% 29.66 in 10.0 mi West 6.9 mph - N/A   Clear
8:15 AM 45.5 °F 41.8 °F 32.4 °F 60% 29.65 in 10.0 mi WNW 6.9 mph - N/A   Clear
8:35 AM 46.4 °F 42.9 °F 32.4 °F 58% 29.66 in 10.0 mi WNW 6.9 mph - N/A   Clear
8:55 AM 46.2 °F 41.7 °F 33.3 °F 61% 29.66 in 10.0 mi WNW 9.2 mph - N/A   Clear
9:15 AM 49.5 °F - 35.2 °F 58% 29.68 in 10.0 mi WNW 11.5 mph - N/A   Clear
9:35 AM 50.7 °F - 36.1 °F 57% 29.68 in 10.0 mi WNW 10.4 mph - N/A   Clear
9:55 AM 52.0 °F - 36.7 °F 56% 29.68 in 10.0 mi WNW 9.2 mph - N/A   Clear
10:15 AM 52.7 °F - 37.2 °F 56% 29.67 in 10.0 mi WNW 9.2 mph - N/A   Clear
10:35 AM 54.5 °F - 38.1 °F 54% 29.67 in 10.0 mi WNW 10.4 mph - N/A   Clear
10:55 AM 56.3 °F - 37.6 °F 50% 29.67 in 10.0 mi West 8.1 mph - N/A   Clear
11:15 AM 57.9 °F - 37.6 °F 47% 29.67 in 10.0 mi West 11.5 mph - N/A   Clear
11:35 AM 58.6 °F - 37.2 °F 45% 29.67 in 10.0 mi West 9.2 mph 18.4 mph N/A   Clear
11:55 AM 59.7 °F - 37.4 °F 43% 29.66 in 10.0 mi West 8.1 mph - N/A   Clear
12:15 PM 61.0 °F - 36.9 °F 41% 29.66 in 10.0 mi WNW 11.5 mph 16.1 mph N/A   Clear
12:35 PM 63.0 °F - 36.3 °F 37% 29.66 in 10.0 mi West 11.5 mph 19.6 mph N/A   Clear
12:55 PM 62.2 °F - 34.9 °F 36% 29.65 in 10.0 mi West 10.4 mph 18.4 mph N/A   Clear
1:15 PM 63.9 °F - 35.4 °F 35% 29.65 in 10.0 mi WNW 12.7 mph 17.3 mph N/A   Clear
1:35 PM 63.9 °F - 35.1 °F 34% 29.65 in 10.0 mi West 10.4 mph 17.3 mph N/A   Clear
1:55 PM 64.4 °F - 35.4 °F 34% 29.64 in 10.0 mi West 11.5 mph 17.3 mph N/A   Clear
2:15 PM 63.7 °F - 35.4 °F 35% 29.64 in 10.0 mi West 10.4 mph - N/A   Clear
2:35 PM 64.2 °F - 35.4 °F 34% 29.64 in 10.0 mi West 5.8 mph - N/A   Clear
2:55 PM 65.3 °F - 35.8 °F 34% 29.63 in 10.0 mi WNW 11.5 mph 18.4 mph N/A   Clear
3:15 PM 65.8 °F - 35.8 °F 33% 29.63 in 10.0 mi WNW 11.5 mph - N/A   Clear
3:35 PM 66.6 °F - 35.2 °F 31% 29.64 in 10.0 mi West 8.1 mph 18.4 mph N/A   Clear
3:55 PM 64.4 °F - 35.2 °F 34% 29.64 in 10.0 mi WNW 9.2 mph - N/A   Clear
4:15 PM 64.8 °F - 35.1 °F 33% 29.64 in 10.0 mi West 4.6 mph - N/A   Clear
4:35 PM 65.7 °F - 35.2 °F 32% 29.64 in 10.0 mi West 8.1 mph - N/A   Clear
4:55 PM 65.3 °F - 35.1 °F 33% 29.64 in 10.0 mi West 8.1 mph - N/A   Clear
5:15 PM 65.5 °F - 35.2 °F 33% 29.65 in 10.0 mi West 10.4 mph 16.1 mph N/A   Clear
5:35 PM 64.9 °F - 35.2 °F 33% 29.65 in 10.0 mi WNW 8.1 mph - N/A   Clear
5:55 PM 64.4 °F - 35.6 °F 34% 29.65 in 10.0 mi WNW 10.4 mph - N/A   Clear
6:15 PM 63.9 °F - 35.4 °F 35% 29.66 in 10.0 mi WNW 9.2 mph - N/A   Clear
6:35 PM 62.8 °F - 36.0 °F 37% 29.66 in 10.0 mi West 3.5 mph - N/A   Clear
6:55 PM 62.1 °F - 36.0 °F 38% 29.67 in 10.0 mi WNW 6.9 mph - N/A   Clear
7:15 PM 61.7 °F - 36.0 °F 38% 29.68 in 10.0 mi West 3.5 mph - N/A   Clear
7:35 PM 61.5 °F - 36.0 °F 39% 29.68 in 10.0 mi Calm Calm - N/A   Clear
7:55 PM 61.0 °F - 36.0 °F 39% 29.69 in 10.0 mi West 4.6 mph - N/A   Clear
8:15 PM 59.7 °F - 36.5 °F 42% 29.69 in 10.0 mi Calm Calm - N/A   Clear
8:35 PM 58.1 °F - 36.7 °F 45% 29.70 in 10.0 mi Calm Calm - N/A   Clear
8:55 PM 58.1 °F - 36.5 °F 44% 29.70 in 10.0 mi Calm Calm - N/A   Clear
9:15 PM 55.4 °F - 37.6 °F 51% 29.71 in 10.0 mi Calm Calm - N/A   Clear
9:35 PM 55.0 °F - 37.8 °F 52% 29.71 in 10.0 mi South 3.5 mph - N/A   Scattered Clouds
9:55 PM 54.1 °F - 38.3 °F 55% 29.71 in 10.0 mi Calm Calm - N/A   Mostly Cloudy
10:15 PM 55.4 °F - 37.6 °F 51% 29.72 in 10.0 mi Calm Calm - N/A   Scattered Clouds
10:35 PM 54.0 °F - 38.5 °F 56% 29.71 in 10.0 mi Calm Calm - N/A   Clear
10:55 PM 53.8 °F - 38.5 °F 56% 29.71 in 10.0 mi Calm Calm - N/A   Scattered Clouds
11:15 PM 54.3 °F - 38.5 °F 55% 29.71 in 10.0 mi Calm Calm - N/A   Mostly Cloudy
11:35 PM 54.5 °F - 38.3 °F 54% 29.70 in 10.0 mi Calm Calm - N/A   Mostly Cloudy
11:55 PM 53.6 °F - 38.3 °F 56% 29.71 in 10.0 mi SSW 4.6 mph - N/A   Scattered Clouds